Find Starlink 30981

NORAD ID: 58494 Int'l Des: 2023-186 Owner: SPXS Country: US Constellation: starlink operational
LEOCIRCULAR

現在のビュー

3D地球を読み込み中...

Starlink 30981について

説明を読み込み中...

次回通過

Passes for default location (London). Set your location on the main map for personalized predictions.

高度履歴

Loading altitude history...

軌道要素

1 58494U 23186X 26159.01572095 .00000436 00000-0 25369-4 0 9994
2 58494 43.0049 273.2542 0001526 271.2014 88.8662 15.27593864139706
Epoch: Jun 8, 2026 • Age: 23 hours

現在のステータス

高度 492.4 km
速度 7.62 km/s
衛星直下点 -35.97°S, 35.17°W
打ち上げ日 Dec 3, 2023
運用期間 2.5 years
タイプ internet

技術仕様

分類 Payload
質量 730.00 kg
乾燥質量 700.00 kg
総質量 730.00 kg
長さ 0.30 m
直径 4.10 m
スパン 29.00 m
形状 Box + pan
製造者 SPXS
バスタイプ Starlink V2M
フェーズステータス In Orbit
所有者/国 SPXS/US

Most Searched